User: anonymous   Login
Location: ActonStarParty
(42.4766°N, 71.4538°W)
Time: 09:37:38
(UTC-04:00)
Language:

ITAMSAT 1 - Orbit

View from above orbital plane
View from above orbital plane
View from above satellite
View from above satellite

Ground track
Ground track

The orbit data is extracted from the following two-line orbital elements,

1 22826U 93061D   15184.41051802  .00000036  00000-0  31367-4 0  9992
2 22826 098.7037 134.6903 0007794 251.3575 108.6761 14.30206965135405
Epoch (UTC): 03 July 2015 09:51:08
Eccentricity: 0.0007794
inclination: 98.7037°
perigee height: 785 km
apogee height: 796 km
right ascension of ascending node: 134.6903°
argument of perigee: 251.3575°
revolutions per day: 14.30206965
mean anomaly at epoch: 108.6761°
orbit number at epoch: 13540

The dashed part of the orbit path shows where the satellite is in the earth's shadow,  

DLR